Lancaster, OH

8:05 PM EST on February 24, 2018 (GMT -0500)
Fairfield County

Weather History for KLHQ - June, 2013

Change the Weather History Date:

Sunday, June 30, 2013

  Actual Average Record
Temperature  
Mean Temperature 70 °F -  
Max Temperature 80 °F 82 °F 96 °F (1953)
Min Temperature 61 °F 60 °F 42 °F (1988)
Cooling Degree Days 6    
Growing Degree Days 20 (Base 50)    
Moisture  
Dew Point 65 °F    
Average Humidity 83    
Maximum Humidity 100    
Minimum Humidity 62    
Precipitation  
Precipitation 0.33 in - - ()
Sea Level Pressure  
Sea Level Pressure 29.76 in    
Wind  
Wind Speed 3 mph (North)    
Max Wind Speed 13 mph    
Max Gust Speed -    
Visibility 8 miles    
Events Rain , Thunderstorm    
Averages and records for this station are not official NWS values.
T = Trace of Precipitation, MM = Missing Value Source: NWS Daily Summary

Daily Weather History Graph

Daily Weather History Graph

Search for Another Location

Airport or City:

Trip Planner

Search our weather history database for the weather conditions in past years. The results will help you decide how hot, cold, wet, or windy it might be!

Date:

Astronomy

Jun. 30, 2013 Rise Set
Actual Time 6:05 AM EDT 9:02 PM EDT
Civil Twilight 5:33 AM EDT 9:35 PM EDT
Nautical Twilight 4:52 AM EDT 10:16 PM EDT
Astronomical Twilight 4:04 AM EDT 11:03 PM EDT
Moon 1:03 AM EDT (6/30) 2:16 PM EDT (6/30)
Length of Visible Light 16h 01m
Length of Day
14h 56m
Last Quarter, 45% of the Moon is Illuminated
Jun 30
Last Quarter
Jul 8
New
Jul 15
First Quarter
Jul 22
Full
Jul 29
Last Quarter

Hourly Weather History & Observations

Time (EDT) Temp. Heat Index Dew Point Humidity Pressure Visibility Wind Dir Wind Speed Gust Speed Precip Events Conditions
12:53 AM 62.1 °F - 61.0 °F 96% 29.68 in 7.0 mi Calm Calm - N/A   Clear
1:13 AM 62.6 °F - 62.6 °F 100% 29.70 in 7.0 mi Calm Calm - N/A   Partly Cloudy
1:53 AM 61.0 °F - 60.1 °F 97% 29.69 in 5.0 mi Calm Calm - N/A   Clear
2:53 AM 62.1 °F - 60.1 °F 93% 29.70 in 7.0 mi Calm Calm - 0.01 in   Clear
3:53 AM 63.0 °F - 61.0 °F 93% 29.68 in 5.0 mi Calm Calm - N/A   Mostly Cloudy
4:53 AM 63.0 °F - 62.1 °F 97% 29.68 in 4.0 mi NNE 4.6 mph - N/A   Partly Cloudy
5:31 AM 62.6 °F - 62.6 °F 100% 29.71 in 5.0 mi NW 4.6 mph - N/A   Overcast
5:53 AM 64.0 °F - 62.1 °F 93% 29.70 in 5.0 mi NE 3.5 mph - N/A   Overcast
6:53 AM 64.0 °F - 62.1 °F 93% 29.72 in 6.0 mi Calm Calm - N/A   Overcast
7:53 AM 66.0 °F - 64.0 °F 93% 29.73 in 8.0 mi Calm Calm - N/A   Clear
8:33 AM 68.0 °F - 64.4 °F 88% 29.76 in 10.0 mi Calm Calm - N/A   Scattered Clouds
8:53 AM 70.0 °F - 64.9 °F 84% 29.75 in 10.0 mi East 3.5 mph - N/A   Mostly Cloudy
9:53 AM 71.1 °F - 64.9 °F 81% 29.76 in 10.0 mi Calm Calm - N/A   Scattered Clouds
10:39 AM 73.4 °F - 66.2 °F 78% 29.78 in 10.0 mi NNE 3.5 mph - N/A   Mostly Cloudy
10:53 AM 73.9 °F - 66.0 °F 76% 29.77 in 10.0 mi NNW 3.5 mph - N/A   Scattered Clouds
11:53 AM 75.9 °F - 66.0 °F 71% 29.77 in 10.0 mi North 3.5 mph - N/A   Mostly Cloudy
12:53 PM 79.0 °F - 66.9 °F 66% 29.76 in 10.0 mi Calm Calm - N/A   Clear
1:53 PM 80.1 °F 82.1 °F 66.0 °F 62% 29.76 in 10.0 mi Calm Calm - N/A   Scattered Clouds
2:34 PM 75.2 °F - 66.2 °F 73% 29.77 in 8.0 mi ENE 3.5 mph - 0.02 in Thunderstorm Overcast
2:38 PM 73.4 °F - 66.2 °F 78% 29.77 in 2.0 mi NE 5.8 mph - 0.10 in Rain , Thunderstorm Heavy Rain
2:43 PM 73.4 °F - 68.0 °F 83% 29.77 in 1.8 mi North 4.6 mph - 0.10 in Rain Light Rain
2:46 PM 73.4 °F - 68.0 °F 83% 29.77 in 3.0 mi NNW 5.8 mph - 0.10 in Rain Light Rain
2:53 PM 73.0 °F - 68.0 °F 84% 29.76 in 10.0 mi NNW 9.2 mph - 0.11 in Rain Light Rain
2:57 PM 71.6 °F - 66.2 °F 83% 29.77 in 9.0 mi NNW 11.5 mph - 0.00 in Rain , Thunderstorm Light Rain
3:03 PM 69.8 °F - 62.6 °F 78% 29.77 in 1.8 mi North 12.7 mph - 0.18 in Rain , Thunderstorm Heavy Rain
3:11 PM 73.4 °F - 66.2 °F 78% 29.78 in 1.8 mi NNW 4.6 mph - 0.20 in Rain Light Rain
3:13 PM 73.4 °F - 66.2 °F 78% 29.78 in 2.5 mi NNW 4.6 mph - 0.20 in Rain Light Rain
3:19 PM 71.6 °F - 66.2 °F 83% 29.78 in 10.0 mi North 5.8 mph - 0.20 in   Overcast
3:32 PM 73.4 °F - 68.0 °F 83% 29.78 in 10.0 mi NNE 6.9 mph - 0.20 in Thunderstorm Mostly Cloudy
3:49 PM 73.4 °F - 66.2 °F 78% 29.78 in 10.0 mi NE 6.9 mph - 0.20 in   Scattered Clouds
3:53 PM 75.9 °F - 69.1 °F 79% 29.76 in 10.0 mi NNE 6.9 mph - 0.20 in   Scattered Clouds
4:53 PM 78.1 °F - 68.0 °F 71% 29.77 in 10.0 mi NNE 4.6 mph - N/A   Partly Cloudy
5:53 PM 75.0 °F - 66.0 °F 73% 29.78 in 10.0 mi NNW 9.2 mph - N/A   Mostly Cloudy
6:53 PM 73.0 °F - 64.9 °F 76% 29.79 in 10.0 mi North 6.9 mph - N/A   Mostly Cloudy
7:53 PM 71.1 °F - 64.9 °F 81% 29.82 in 10.0 mi NNE 4.6 mph - 0.00 in Rain Light Rain
8:53 PM 69.1 °F - 64.9 °F 87% 29.82 in 10.0 mi NNW 4.6 mph - 0.01 in   Overcast
9:53 PM 69.1 °F - 64.9 °F 87% 29.83 in 10.0 mi North 3.5 mph - N/A   Overcast
10:53 PM 68.0 °F - 64.0 °F 87% 29.85 in 10.0 mi NNW 3.5 mph - N/A   Overcast
11:53 PM 68.0 °F - 64.9 °F 90% 29.84 in 9.0 mi NNW 4.6 mph - N/A   Clear